Total_Precipitation_Accumulation
0.10 0.09 0.45 0.17 0.01 0.03 0.21 0.58 1.44 2.15 2.41 3.72 3.61 3.05 2.39 1.51 1.12 1.37 0.90 0.21 0.08 0.12 0.07 0.02 0.07 0.10 0.05 0.04 0.07 0.13 0.28 0.42 0.64 0.67 0.71 0.83 0.66 0.84 0.98 1.09 1.23 1.49 1.36 1.96
0.09 0.09 0.23 0.03 0.00 0.02 0.04 0.41 1.10 1.42 1.63 2.79 4.20 3.50 2.83 2.00 1.14 1.11 1.36 0.75 0.28 0.21 0.16 0.04 0.05 0.05 0.04 0.03 0.03 0.15 0.31 0.40 0.34 0.22 0.16 0.54 0.87 1.41 1.84 1.42 1.52 1.78 1.24 1.56
0.03 0.22 0.03 0.01 0.03 0.00 0.06 0.31 0.74 1.01 0.74 1.44 3.84 5.27 3.62 2.47 1.92 1.70 0.98 0.76 0.55 0.23 0.21 0.22 0.13 0.05 0.04 0.01 0.01 0.02 0.14 0.25 0.29 0.27 0.30 0.92 1.70 2.57 2.47 2.58 2.23 1.98 1.37 1.15
0.01 0.04 0.00 0.00 0.01 0.01 0.14 0.21 0.62 1.42 0.87 1.10 0.91 3.65 4.52 2.71 2.43 2.15 1.05 0.77 0.54 0.46 0.41 0.45 0.24 0.10 0.03 0.03 0.05 0.04 0.14 0.24 0.21 0.35 0.28 0.75 1.49 1.78 1.61 1.73 1.99 1.63 1.47 1.22
0.00 0.00 0.01 0.00 0.03 0.04 0.07 0.18 0.56 0.69 0.73 0.73 0.47 1.64 2.36 2.34 2.21 2.28 1.23 0.71 0.73 0.98 0.39 0.24 0.17 0.19 0.22 0.15 0.39 0.34 0.23 0.33 0.32 0.42 0.81 0.71 0.90 1.01 1.36 1.58 2.09 2.07 1.67 1.76
0.00 0.02 0.01 0.00 0.03 0.04 0.06 0.09 0.32 0.62 0.60 0.72 0.30 0.64 1.84 1.87 1.13 1.61 1.24 0.81 0.61 0.73 0.47 0.41 0.46 0.35 0.35 0.56 0.88 0.43 0.29 0.27 0.45 0.52 0.60 0.92 1.64 2.16 2.23 2.83 2.25 1.45 1.72 2.19
0.00 0.02 0.00 0.00 0.02 0.03 0.04 0.07 0.59 0.50 0.55 0.81 0.37 0.46 0.82 0.99 0.82 1.32 1.42 1.21 0.94 0.78 0.99 0.58 0.54 0.30 0.27 0.26 0.52 0.27 0.29 0.29 0.27 0.41 0.46 0.77 2.08 3.52 3.03 2.50 1.48 1.50 1.44 1.64
0.01 0.03 0.00 0.00 0.00 0.01 0.01 0.05 0.37 0.33 0.60 0.71 0.51 0.99 0.55 0.34 0.35 0.91 0.80 1.22 1.70 1.37 0.97 1.09 0.81 0.50 0.27 0.21 0.22 0.11 0.31 0.31 0.33 0.51 0.75 1.96 5.19 4.15 2.61 2.32 1.93 1.07 1.66 1.47
0.00 0.01 0.01 0.00 0.00 0.00 0.00 0.01 0.05 0.13 0.24 0.73 0.61 1.12 0.75 0.39 0.41 0.53 0.57 1.15 2.14 1.73 1.14 2.70 1.43 0.94 0.61 0.17 0.15 0.26 0.59 0.47 0.52 0.72 1.75 3.07 3.59 3.76 3.70 3.36 2.56 1.41 1.54 1.64
0.00 0.02 0.02 0.00 0.00 0.01 0.01 0.01 0.03 0.07 0.23 0.27 0.64 1.74 1.42 0.70 1.36 0.94 0.81 0.84 0.82 1.38 1.40 1.52 1.27 1.09 0.87 0.53 0.39 0.41 0.61 0.64 0.94 1.41 2.19 2.15 2.72 2.46 2.35 2.40 1.86 1.43 2.15 2.77
0.01 0.01 0.01 0.00 0.02 0.03 0.02 0.00 0.01 0.01 0.11 0.32 0.60 1.27 1.24 1.09 1.81 1.71 1.06 0.72 1.09 0.68 1.11 1.85 2.44 2.73 2.10 1.74 1.48 1.05 1.37 2.05 2.59 2.70 2.81 3.25 3.00 2.04 1.71 1.56 1.31 1.23 1.74 2.18
0.02 0.02 0.01 0.01 0.03 0.09 0.12 0.07 0.06 0.02 0.17 0.22 0.30 1.00 0.93 1.09 1.26 1.41 1.99 1.23 1.24 0.76 1.02 1.30 1.93 3.19 4.55 3.12 3.69 4.78 4.07 4.04 4.32 3.85 3.39 3.44 2.59 2.28 1.55 0.99 1.07 1.72 1.72 1.82
0.09 0.07 0.06 0.09 0.08 0.03 0.01 0.02 0.17 0.14 0.14 0.07 0.15 0.69 1.10 0.77 1.26 1.59 2.23 2.10 1.52 1.88 2.58 1.53 1.53 1.83 3.09 3.07 3.13 6.18 7.90 7.37 5.90 4.16 3.70 2.64 2.74 1.73 1.43 1.12 0.83 0.94 1.43 1.98
0.21 0.06 0.03 0.20 0.24 0.10 0.02 0.02 0.01 0.06 0.09 0.04 0.10 0.42 1.09 0.81 1.54 0.92 1.55 2.55 2.11 2.06 2.02 2.64 2.92 3.18 3.75 4.61 4.89 5.43 5.15 4.93 5.26 3.84 3.87 2.91 2.83 2.64 1.98 1.77 1.55 1.22 1.28 1.34
0.12 0.02 0.00 0.03 0.01 0.01 0.05 0.04 0.03 0.01 0.01 0.09 0.54 0.24 0.82 0.56 0.46 0.79 0.63 0.60 0.69 0.92 1.09 1.21 1.70 1.75 2.83 3.86 3.32 4.28 4.52 4.02 3.34 3.85 4.90 4.71 3.82 3.28 3.13 3.46 3.01 2.36 1.98 1.98
0.11 0.05 0.01 0.00 0.01 0.01 0.01 0.01 0.01 0.05 0.13 0.07 0.30 0.69 0.45 0.68 0.61 0.50 0.92 1.36 1.44 1.18 1.05 1.18 1.61 1.58 1.73 2.10 2.18 3.01 4.46 5.05 3.71 2.87 3.01 3.84 4.74 5.35 4.64 4.71 4.40 4.82 4.20 3.89
0.17 0.16 0.16 0.07 0.07 0.02 0.06 0.01 0.01 0.01 0.04 0.05 0.17 0.91 1.09 0.74 0.76 0.97 0.84 1.17 1.90 1.79 1.55 1.43 1.57 2.13 2.23 2.25 2.18 2.50 2.90 3.94 4.63 4.89 4.42 4.17 4.70 6.19 6.54 5.37 4.98 5.13 5.62 7.39
0.16 0.22 0.25 0.20 0.27 0.25 0.09 0.09 0.05 0.08 0.08 0.20 0.36 0.42 0.72 0.63 0.40 0.57 0.95 1.07 1.32 1.84 1.90 1.72 1.58 1.87 1.78 2.24 2.68 2.59 2.82 2.80 3.17 4.27 4.55 4.69 4.57 5.26 5.87 5.09 4.79 5.32 7.08 7.71
0.09 0.24 0.27 0.18 0.39 0.37 0.14 0.14 0.07 0.08 0.20 0.24 0.27 0.43 1.13 1.09 0.77 0.65 0.72 0.75 0.81 1.21 1.14 1.33 1.70 1.72 2.01 1.93 2.24 2.50 2.41 2.25 2.33 2.43 3.14 4.38 5.54 5.60 6.41 6.74 6.03 6.08 5.87 5.34
0.15 0.28 0.40 0.26 0.63 0.86 0.69 0.32 0.11 0.09 0.36 0.54 0.44 0.61 1.43 1.16 1.28 1.09 0.82 0.84 1.00 0.86 0.76 0.66 0.65 0.94 1.31 2.05 2.23 2.43 2.79 2.37 2.59 4.44 3.74 3.56 4.95 6.43 6.26 5.98 6.18 6.16 6.49 6.11
0.64 0.53 0.48 0.43 0.76 0.73 0.47 0.26 0.08 0.29 0.45 0.52 0.68 1.48 1.48 1.24 1.70 1.85 1.39 1.25 0.76 0.70 0.75 0.41 0.34 0.44 0.65 0.95 1.36 2.06 1.91 2.24 3.21 3.43 4.08 5.35 5.90 5.87 5.35 5.05 4.71 5.00 5.12 5.10
1.01 1.18 0.80 0.63 0.96 1.03 0.60 0.48 0.38 0.39 0.36 0.56 0.80 1.46 2.19 1.59 1.47 1.34 0.80 0.76 0.79 0.63 0.90 0.64 0.40 0.51 0.61 0.87 1.22 1.68 2.11 2.22 2.86 4.06 5.52 5.93 5.37 4.91 4.47 4.49 5.12 5.23 5.34 5.68
1.01 0.89 0.79 0.82 1.07 1.18 0.72 0.60 0.34 0.64 0.76 0.67 0.87 0.89 0.94 0.91 0.88 0.96 0.82 0.74 0.69 0.42 0.81 0.83 0.45 0.49 0.93 1.19 1.28 1.57 1.85 2.16 2.78 3.19 3.61 3.78 3.90 3.76 3.55 3.86 4.10 4.06 4.21 4.00
1.76 1.03 0.83 0.94 1.01 1.02 0.78 0.52 0.45 0.39 0.75 0.33 0.35 0.47 0.76 0.78 0.54 0.46 0.41 0.39 0.43 0.43 0.67 1.83 1.75 1.14 1.54 1.57 1.65 1.62 1.65 1.92 2.40 3.03 3.18 2.57 1.96 2.10 1.95 2.01 2.06 2.21 2.42 2.53
2.60 2.59 1.56 1.03 1.15 1.42 1.34 0.96 0.66 0.71 0.71 0.57 0.64 0.87 0.76 1.01 0.65 0.54 0.46 0.40 0.44 0.65 0.78 1.47 2.21 2.38 2.14 2.53 2.74 3.09 2.88 3.44 3.93 3.27 2.02 1.61 1.81 2.37 2.66 2.96 3.12 2.75 2.69 2.74
2.48 2.77 2.52 1.91 1.94 1.99 1.40 1.30 0.96 1.02 0.94 0.89 0.86 1.07 1.10 1.59 0.72 0.48 0.50 0.49 0.50 0.67 1.27 1.93 2.73 3.35 3.57 3.43 3.53 3.51 3.58 3.28 2.69 1.88 1.68 1.91 1.87 2.32 2.70 2.43 2.57 3.16 3.50 3.45